TimeEST,TemperatureF,Dew PointF,Humidity,Sea Level PressureIn,VisibilityMPH,Wind Direction,Wind SpeedMPH,Gust SpeedMPH,PrecipitationIn,Events,Conditions,WindDirDegrees,DateUTC
12:56 AM,44.1,37.9,79,30.18,10.0,SW,5.8,-,N/A,,Clear,220,2013-12-17 05:56:00
1:56 AM,44.1,39.0,82,30.18,10.0,SW,5.8,-,N/A,,Clear,220,2013-12-17 06:56:00
2:56 AM,46.0,39.0,76,30.18,10.0,SW,5.8,-,N/A,,Clear,220,2013-12-17 07:56:00
3:56 AM,45.0,39.0,80,30.18,10.0,WSW,8.1,-,N/A,,Clear,240,2013-12-17 08:56:00
4:56 AM,45.0,37.9,76,30.17,10.0,SW,6.9,-,N/A,,Clear,230,2013-12-17 09:56:00
6:56 AM,41.0,35.1,79,30.17,10.0,Calm,Calm,-,N/A,,Clear,0,2013-12-17 11:56:00
7:56 AM,42.1,36.0,79,30.18,10.0,SW,4.6,-,N/A,,Clear,220,2013-12-17 12:56:00
8:56 AM,46.0,36.0,68,30.18,10.0,SW,6.9,-,N/A,,Clear,230,2013-12-17 13:56:00
9:56 AM,48.9,35.1,59,30.18,10.0,WSW,8.1,-,N/A,,Clear,240,2013-12-17 14:56:00
10:56 AM,54.0,36.0,51,30.16,10.0,South,3.5,-,N/A,,Clear,180,2013-12-17 15:56:00
11:56 AM,57.9,37.0,46,30.12,10.0,SW,4.6,-,N/A,,Clear,230,2013-12-17 16:56:00
12:56 PM,62.1,37.0,39,30.08,10.0,South,9.2,-,N/A,,Clear,180,2013-12-17 17:56:00
1:56 PM,62.1,39.9,44,30.05,10.0,South,9.2,-,N/A,,Clear,190,2013-12-17 18:56:00
2:56 PM,63.0,41.0,45,30.03,10.0,South,10.4,-,N/A,,Clear,180,2013-12-17 19:56:00
3:56 PM,61.0,42.1,50,30.02,10.0,South,9.2,-,N/A,,Clear,190,2013-12-17 20:56:00
4:56 PM,57.0,42.1,57,30.01,10.0,South,9.2,-,N/A,,Clear,190,2013-12-17 21:56:00
5:56 PM,54.0,41.0,62,30.01,10.0,South,10.4,-,N/A,,Clear,190,2013-12-17 22:56:00
6:56 PM,54.0,39.9,59,30.00,10.0,SSW,11.5,-,N/A,,Clear,200,2013-12-17 23:56:00
7:56 PM,53.1,39.0,59,29.99,10.0,SSW,8.1,-,N/A,,Clear,210,2013-12-18 00:56:00
8:56 PM,52.0,39.9,63,29.99,10.0,SSW,8.1,-,N/A,,Clear,210,2013-12-18 01:56:00
9:56 PM,53.1,39.9,61,29.99,10.0,SW,9.2,-,N/A,,Clear,230,2013-12-18 02:56:00
10:56 PM,54.0,37.9,55,30.00,10.0,WSW,13.8,20.7,N/A,,Clear,240,2013-12-18 03:56:00
11:56 PM,53.1,36.0,52,30.01,10.0,WSW,12.7,19.6,N/A,,Clear,250,2013-12-18 04:56:00